Carmi, IL

3:41 PM CST on December 06, 2019 (GMT -0600)
Carmi Municipal

Weather History for KCUL - November, 2019

Change the Weather History Date:

Thursday, November 21, 2019

  Actual Average (KEHR) Record (KEHR)
Temperature  
Mean Temperature 48 °F -  
Max Temperature 53 °F 54 °F 74 °F (1934)
Min Temperature 44 °F 36 °F 13 °F (1937)
Degree Days  
Heating Degree Days 16    
Moisture  
Dew Point 47 °F    
Average Humidity 90    
Maximum Humidity 100    
Minimum Humidity 62    
Precipitation  
Precipitation 0.08 in - - ()
Sea Level Pressure  
Sea Level Pressure 30.02 in    
Wind  
Wind Speed 10 mph ()    
Max Wind Speed 24 mph    
Max Gust Speed 33 mph    
Visibility 7.9 miles    
Events Rain    
Averages and records for this station are not official NWS values.
T = Trace of Precipitation, MM = Missing Value Source: Averaged Metar Reports

Daily Weather History Graph

Daily Weather History Graph

Search for Another Location

Airport or City:

Astronomy

Nov. 21, 2019 Rise Set
Actual Time 6:39 AM CST 4:36 PM CST
Civil Twilight 6:11 AM CST 5:05 PM CST
Nautical Twilight 5:38 AM CST 5:37 PM CST
Astronomical Twilight 5:07 AM CST 6:08 PM CST
Moon 12:42 AM CST (11/21) 1:59 PM CST (11/21)
Length of Visible Light 10h 54m
Length of Day
9h 57m
Waning Crescent, 29% of the Moon is Illuminated
Nov 21
Waning Crescent
Nov 26
New
Dec 4
First Quarter
Dec 11
Full
Dec 18
Last Quarter

Hourly Weather History & Observations

Time (CST) Temp. Windchill Dew Point Humidity Pressure Visibility Wind Dir Wind Speed Gust Speed Precip Events Conditions
12:15 AM 44.6 °F 41.4 °F 41.0 °F 87% 30.13 in 10.0 mi SSE 5.8 mph - N/A   Clear
12:55 AM 44.6 °F 41.4 °F 41.0 °F 87% 30.12 in 10.0 mi SSE 5.8 mph - N/A   Clear
1:15 AM 44.6 °F 39.7 °F 41.0 °F 87% 30.10 in 10.0 mi SE 9.2 mph - N/A   Clear
1:35 AM 44.6 °F 39.7 °F 39.2 °F 81% 30.09 in 10.0 mi SE 9.2 mph - N/A   Clear
1:55 AM 44.6 °F 40.2 °F 39.2 °F 81% 30.09 in 10.0 mi SSE 8.1 mph - N/A   Clear
2:15 AM 44.6 °F 40.2 °F 39.2 °F 81% 30.09 in 10.0 mi SSE 8.1 mph - N/A   Clear
2:35 AM 44.6 °F 42.2 °F 41.0 °F 87% 30.10 in 10.0 mi SE 4.6 mph - N/A   Scattered Clouds
3:15 AM 44.6 °F 42.2 °F 41.0 °F 87% 30.08 in 10.0 mi SE 4.6 mph - N/A   Mostly Cloudy
3:55 AM 44.6 °F 43.1 °F 41.0 °F 87% 30.08 in 10.0 mi South 3.5 mph - N/A   Scattered Clouds
4:15 AM 44.6 °F 40.7 °F 41.0 °F 87% 30.08 in 10.0 mi SSE 6.9 mph - N/A   Clear
4:35 AM 44.6 °F 41.4 °F 41.0 °F 87% 30.07 in 10.0 mi SE 5.8 mph - N/A   Clear
4:55 AM 46.4 °F 44.3 °F 39.2 °F 76% 30.08 in 10.0 mi SE 4.6 mph - N/A   Mostly Cloudy
5:35 AM 46.4 °F 41.9 °F 39.2 °F 76% 30.05 in 10.0 mi SE 9.2 mph - N/A   Mostly Cloudy
5:55 AM 46.4 °F 41.5 °F 39.2 °F 76% 30.04 in 10.0 mi SSE 10.4 mph - N/A   Scattered Clouds
6:15 AM 48.2 °F - 39.2 °F 71% 30.04 in 10.0 mi SSE 13.8 mph - N/A   Mostly Cloudy
6:35 AM 50.0 °F - 39.2 °F 66% 30.03 in 10.0 mi South 15.0 mph 20.7 mph N/A   Overcast
6:55 AM 51.8 °F - 39.2 °F 62% 30.02 in 10.0 mi South 15.0 mph - N/A Rain Light Rain
7:15 AM 50.0 °F - 42.8 °F 76% 30.03 in 10.0 mi South 11.5 mph - N/A Rain Rain
7:35 AM 50.0 °F - 42.8 °F 76% 30.02 in 10.0 mi South 13.8 mph - N/A Rain Light Rain
7:55 AM 50.0 °F - 42.8 °F 76% 30.02 in 10.0 mi South 11.5 mph - N/A   Overcast
8:15 AM 51.8 °F - 44.6 °F 76% 30.03 in 10.0 mi South 13.8 mph - N/A Rain Light Rain
8:35 AM 50.0 °F - 44.6 °F 82% 30.03 in 10.0 mi South 16.1 mph 21.9 mph N/A Rain Light Rain
8:55 AM 50.0 °F - 44.6 °F 82% 30.02 in 10.0 mi South 16.1 mph 23.0 mph N/A   Light Drizzle
9:15 AM 50.0 °F - 46.4 °F 87% 30.04 in 5.0 mi SSW 16.1 mph 21.9 mph 0.01 in Rain Rain
9:35 AM 50.0 °F - 46.4 °F 87% 30.04 in 3.0 mi SSW 15.0 mph 21.9 mph 0.06 in Rain Rain
9:55 AM 48.2 °F - 46.4 °F 93% 30.03 in 10.0 mi SSW 17.3 mph 24.2 mph 0.06 in   Overcast
10:15 AM 50.0 °F - 48.2 °F 94% 30.03 in 10.0 mi SSW 18.4 mph 24.2 mph N/A   Overcast
10:35 AM 51.8 °F - 50.0 °F 94% 30.01 in 10.0 mi SSW 20.7 mph 29.9 mph N/A   Overcast
10:55 AM 51.8 °F - 50.0 °F 94% 30.01 in 10.0 mi SSW 23.0 mph 31.1 mph N/A   Overcast
11:15 AM 51.8 °F - 50.0 °F 94% 30.00 in 7.0 mi SSW 24.2 mph 33.4 mph 0.01 in Rain Light Rain
11:55 AM 53.6 °F - 50.0 °F 88% 29.98 in 10.0 mi SSW 19.6 mph 25.3 mph 0.01 in   Overcast
12:15 PM 53.6 °F - 50.0 °F 88% 29.97 in 10.0 mi SSW 19.6 mph 27.6 mph N/A   Overcast
12:35 PM 53.6 °F - 50.0 °F 88% 29.97 in 10.0 mi SSW 17.3 mph 31.1 mph N/A   Overcast
12:55 PM 53.6 °F - 50.0 °F 88% 29.97 in 10.0 mi SSW 20.7 mph 29.9 mph N/A   Overcast
1:15 PM 53.6 °F - 50.0 °F 88% 29.97 in 10.0 mi SSW 16.1 mph 28.8 mph N/A   Overcast
1:35 PM 53.6 °F - 50.0 °F 88% 29.97 in 10.0 mi SSW 23.0 mph 29.9 mph N/A   Overcast
1:55 PM 53.6 °F - 51.8 °F 94% 29.96 in 10.0 mi SSW 17.3 mph 27.6 mph N/A   Overcast
2:15 PM 53.6 °F - 51.8 °F 94% 29.96 in 10.0 mi SSW 17.3 mph 23.0 mph N/A   Overcast
2:35 PM 53.6 °F - 51.8 °F 94% 29.96 in 10.0 mi SSW 12.7 mph 21.9 mph N/A   Overcast
3:15 PM 53.6 °F - 51.8 °F 94% 29.97 in 10.0 mi SW 16.1 mph 26.5 mph N/A   Overcast
3:35 PM 53.6 °F - 51.8 °F 94% 29.97 in 10.0 mi SSW 15.0 mph 24.2 mph N/A   Overcast
3:55 PM 53.6 °F - 51.8 °F 94% 29.98 in 10.0 mi SSW 15.0 mph 24.2 mph N/A   Overcast
4:15 PM 53.6 °F - 51.8 °F 94% 29.98 in 10.0 mi SSW 16.1 mph 21.9 mph N/A   Overcast
4:35 PM 53.6 °F - 51.8 °F 94% 29.99 in 10.0 mi SSW 11.5 mph 17.3 mph N/A   Overcast
4:55 PM 53.6 °F - 51.8 °F 94% 29.99 in 10.0 mi SSW 16.1 mph 19.6 mph N/A   Overcast
5:15 PM 53.6 °F - 53.6 °F 100% 29.98 in 5.0 mi SSW 17.3 mph - N/A   Overcast
5:35 PM 53.6 °F - 53.6 °F 100% 29.98 in 7.0 mi SSW 12.7 mph 19.6 mph N/A   Overcast
5:55 PM 53.6 °F - 53.6 °F 100% 29.99 in 5.0 mi SSW 11.5 mph - N/A   Overcast
6:15 PM 53.6 °F - 53.6 °F 100% 29.99 in 5.0 mi SSW 13.8 mph 18.4 mph N/A   Overcast
6:35 PM 53.6 °F - 53.6 °F 100% 29.99 in 7.0 mi SSW 10.4 mph - N/A   Overcast
6:55 PM 53.6 °F - 53.6 °F 100% 30.00 in 10.0 mi SSW 9.2 mph - N/A   Overcast
7:15 PM 53.6 °F - 53.6 °F 100% 30.00 in 7.0 mi SW 9.2 mph - N/A   Overcast
7:35 PM 53.6 °F - 53.6 °F 100% 30.00 in 5.0 mi SSW 10.4 mph 17.3 mph N/A Rain Light Rain
7:55 PM 53.6 °F - 53.6 °F 100% 30.00 in 4.0 mi SW 10.4 mph - N/A   Light Drizzle
8:15 PM 53.6 °F - 53.6 °F 100% 30.01 in 3.0 mi SSW 9.2 mph - N/A   Overcast
8:35 PM 53.6 °F - 53.6 °F 100% 30.00 in 1.8 mi SSW 8.1 mph - N/A   Overcast
9:15 PM 53.6 °F - 53.6 °F 100% 30.00 in 0.8 mi WSW 3.5 mph - N/A Rain Rain
9:35 PM 53.6 °F - 53.6 °F 100% 30.01 in 1.0 mi WNW 15.0 mph 18.4 mph N/A Rain Light Rain
9:55 PM 50.0 °F - 50.0 °F 100% 30.02 in 1.5 mi NW 11.5 mph 17.3 mph 0.01 in   Light Drizzle
10:15 PM 48.2 °F - 48.2 °F 100% 30.00 in 1.0 mi NNW 11.5 mph 17.3 mph N/A Rain Light Rain
10:35 PM 46.4 °F 40.4 °F 46.4 °F 100% 30.02 in 4.0 mi NNW 13.8 mph 19.6 mph N/A   Light Drizzle
10:55 PM 46.4 °F 41.5 °F 46.4 °F 100% 30.03 in 5.0 mi NW 10.4 mph - N/A   Overcast
11:15 PM 46.4 °F 42.9 °F 46.4 °F 100% 30.03 in 1.2 mi NNW 6.9 mph - N/A Rain Rain
11:35 PM 46.4 °F 44.3 °F 46.4 °F 100% 30.03 in 2.5 mi NNW 4.6 mph - N/A Rain Rain
11:55 PM 46.4 °F 41.9 °F 46.4 °F 100% 30.05 in 4.0 mi NNW 9.2 mph - N/A Rain Rain